User: anonymous   Login
Location: Unspecified
(0.0000°N, 0.0000°E)
Time: 01:52:26
(UTC+00:00)
Language:

OBJECT M - Orbit

View from above orbital plane
View from above orbital plane
View from above satellite
View from above satellite

Ground track
Ground track

The orbit data is extracted from the following two-line orbital elements,

1 42836U 17042M   24107.40350776  .00009066  00000-0  78735-3 0  9997
2 42836  97.3818 293.4186 0009788 280.3923  79.6196 14.97193021368038
Epoch (UTC): 16 April 2024 09:41:03
Eccentricity: 0.0009788
inclination: 97.3818°
perigee height: 569 km
apogee height: 582 km
right ascension of ascending node: 293.4186°
argument of perigee: 280.3923°
revolutions per day: 14.97193021
mean anomaly at epoch: 79.6196°
orbit number at epoch: 36803

The dashed part of the orbit path shows where the satellite is in the earth's shadow,  

DLR